Regional Weather Roundup
Issued by NWS

Home | Current Version | Previous Version | Text Only | Print | Product List | Glossary On
Versions: 1 2 3 4 5 6 7 8 9 10 11 12 13 14 15 16 17 18 19 20 21 22 23 24 25 26 27 28 29 30 31 32 33 34 35 36 37 38 39 40 41 42 43 44 45 46 47 48 49 50
000
ASUS44 KEWX 240402
RWRTX
SOUTH TEXAS REGIONAL WEATHER ROUNDUP
NATIONAL WEATHER SERVICE AUSTIN/SAN ANTONIO TX
1100 PM CDT WED APR 23 2014

NOTE: "FAIR" INDICATED FEW OR NO CLOUDS BELOW 12,000 FEET WITH NO
SIGNIFICANT WEATHER AND/OR OBSTRUCTIONS TO VISIBILITY.

* - THESE STATIONS ARE NOT NWS OR FAA STATIONS...AND ARE NOT SUBJECT
    TO NWS AND FAA QUALITY CONTROL.

TXZ171-172-183>190-240500-
TEXAS HILL COUNTRY AND EDWARDS PLATEAU

CITY           SKY/WX    TMP DP  RH WIND       PRES   REMARKS
JUNCTION       MOCLDY    78  60  53 S9        29.75R
*LLANO         CLOUDY    77  63  61 S16       29.78R
BURNET         CLOUDY    72  62  71 SE15G28   29.79F
*HORSESHOE BAY CLOUDY    74  62  66 S12G23    29.77R
*KERRVILLE     CLOUDY    74  61  63 SE20G28   29.79S
*FREDERICKSBRG CLOUDY    73  61  65 SE12G23   29.79R
*ROCKSPRINGS   MOCLDY    75  59  57 SE18      29.79R
*BOERNE STAGE  CLOUDY    72  59  64 SE17G26   29.80R
*CASTROVILLE   CLOUDY    74  55  52 SE18G30   29.77F
HONDO          CLOUDY    76  60  57 SE23G32   29.76S
*UVALDE        CLOUDY    78  61  55 SE15G24   29.73R
DEL RIO        MOCLDY    72  61  68 S3        29.72R
LAUGHLIN AFB   MOCLDY    74  64  70 S8        29.73R
CARRIZO SPRGS  MOCLDY    77  63  61 SE23G30   29.71F
$$

TXZ173-191>194-202-209-217>225-228-240500-
CENTRAL AND SOUTH CENTRAL TEXAS

CITY           SKY/WX    TMP DP  RH WIND       PRES   REMARKS
GEORGETOWN     CLOUDY    73  63  68 SE14G23   29.79F
AUSTIN/BERGSTM CLOUDY    72  63  73 SE17      29.80F
AUSTIN/MABRY   CLOUDY    72  63  73 SE15G25   29.80F
*AUSTIN/EXEC   CLOUDY    72  63  73 S15G21    29.83R
*LAGO VISTA    CLOUDY    72  63  73 SE10G31   29.81F
SAN MARCOS     CLOUDY    70  61  73 SE21      29.81F
NEW BRAUNFELS  CLOUDY    71  63  75 S25G33    29.78F
RANDOLPH AFB   NOT AVBL
PT SAN ANTONIO NOT AVBL
SAN ANTONIO    CLOUDY    73  63  70 SE21G35   29.78F
STINSON FIELD  CLOUDY    73  63  70 SE16G31   29.77F
*PLEASANTON    CLOUDY    72  62  70 SE13      29.85F
*LA GRANGE     CLOUDY    70  65  84 S7        29.84R
*GIDDINGS      CLOUDY    70  62  75 S9G18     29.89R
*GONZALES      CLOUDY    71  66  84 S10G16    29.85R
$$

TXZ163>164-176>182-195>201-210>213-226-227-235-240500-
SOUTHEAST TEXAS

CITY           SKY/WX    TMP DP  RH WIND       PRES   REMARKS
COLLEGE STN    CLOUDY    72  64  76 S17G25    29.84R
*BRYAN         CLOUDY    72  64  77 S12G22    29.84R
*CALDWELL      LGT RAIN  72  64  78 S16G23    29.86R
*CROCKETT      CLOUDY    73  66  78 S8        29.88R
*BRENHAM       CLOUDY    71  64  78 S12       29.86R
HUNTSVILLE     CLOUDY    71  64  78 S7        29.86R
CONROE         MOCLDY    67  66  97 SE10      29.87S
HOUSTON BUSH   PTCLDY    70  65  84 S8        29.87S
HOUSTON HOBBY  PTCLDY    69  66  90 SE9       29.88S
*HOUSTON SW AP CLEAR     67  67  97 SE6       29.89S
PEARLAND       CLEAR     70  65  84 SE7       29.90R
HOUSTON HOOKS  CLEAR     70  65  84 S5        29.87S
ELLINGTON FLD  PTCLDY    70  66  88 SE7       29.90S
SUGAR LAND     CLEAR     70  66  87 S13       29.87F
*HOUSTON EXEC  CLEAR     68  68 100 SE10      29.88R
*CLEVELAND MUN CLEAR     68  66  94 S5        29.88S
*WHARTON       MOCLDY    69  66  92 SE10      29.88S
$$

TXZ214>216-236>238-240500-
THE UPPER TEXAS COAST

CITY           SKY/WX    TMP DP  RH WIND       PRES   REMARKS
*ORANGE        PTCLDY    70  66  88 S7        29.92S
PORT ARTHUR    PTCLDY    67  65  93 S7        29.90S
GALVESTON      CLEAR     70  69  97 SE13      29.90F
ANGLETON       PTCLDY    70  66  87 SE13      29.89R
*BAY CITY      MOCLDY    71  69  93 SE7       29.89R
PALACIOS         N/A     72  67  84 SE15G25   29.87S
$$

TXZ229>234-239>247-240500-
TEXAS COASTAL BEND AND RIO GRANDE PLAINS

CITY           SKY/WX    TMP DP  RH WIND       PRES   REMARKS
VICTORIA       PTCLDY    70  67  90 SE14      29.86S
*BEEVILLE      CLEAR     71  67  86 SE18      29.82F
ROCKPORT       CLOUDY    73  69  87 SE18G28   29.85S
*PORT ARANSAS  CLOUDY    71  71 100 SE14G22   29.85S
*PORT LAVACA   CLEAR     69  66  90 SE14      29.86S
*INGLESIDE     CLOUDY    74  70  89 SE16G24   29.85R
CORPUS CHRISTI MOCLDY    73  68  84 SE18G28   29.84S
CORPUS NAS     MOCLDY    72  70  93 SE18      29.84S
*ROBSTOWN      MOCLDY    74  68  82 SE18G24   29.84F
ALICE          CLEAR     72  66  81 SE14      29.82S
KINGSVILLE NAS PTCLDY    73  68  84 SE18G26   29.83S
COTULLA        MOCLDY    75  61  61 SE29      29.78F
*FAITH RANCH   MOCLDY    81  64  57 SE17G24   29.76S
LAREDO         MOCLDY    78  60  53 SE18G24   29.78F
$$

TXZ248>255-240500-
DEEP SOUTH TEXAS

CITY           SKY/WX    TMP DP  RH WIND       PRES   REMARKS
BROWNSVILLE    CLEAR     73  69  87 SE16G23   29.82F
PORT ISABEL    NOT AVBL
*SOUTH PADRE     N/A     72  70  94 CALM      29.83F
HARLINGEN      CLEAR     72  67  84 SE15      29.80F
*HEBBRONVILLE  CLEAR     72  64  75 SE14      29.82F
MCALLEN        PTCLDY    73  67  81 SE13      29.82R
*WESLACO       CLEAR     73  65  78 SE9G16    29.81R
FALFURRIAS     CLEAR     73  66  78 SE7       29.84R
EDINBURG       CLEAR     74  66  76 SE8       29.82R
*ZAPATA        CLEAR     76  59  55 SE10G23   29.79R
$$

TXZ213>215-236>238-242>244-246-247-251-254-255-240500-
CMAN STATIONS

STATION/POSITION TIME  TEMP    WIND        PRES    WAVE
                       AIR SEA DIR/SP/G            HT/PER
                 (UTC) (F)     (DEG/KT/KT) (MB)    (FT/S)
SABINE PASS      0300   70 72  190/  9/ 12 1012.7
SEA RIM ST PARK  0300   70     180/ 11/ 13 1013.2
NORTH JETTY/GLS  0300   71 74  170/ 14/ 17   N/A
EAGLE POINT      0300   72 70  190/ 15/ 17 1012.1
MORGANS POINT    0300   71 69  150/  8/ 12   N/A
MISSION/ARANSAS  0300   72     140/ 18     1011.0
PORT O`CONNOR    0300          150/ 18/ 21   N/A
PORT ARANSAS     0300   71 77  120/ 17/ 20 1010.8
MALAQUITE BEACH  0300   72 74  130/ 15/ 18 1010.1
BAFFIN BAY       0300   72 74  140/ 14/ 19 1010.4
PORT ISABEL      0300   73 75  140/ 12/ 18 1010.5
$$

GMZ080-GMZ150>470-240500-
OFFSHORE BUOY REPORTS

STATION/POSITION TIME  TEMP    WIND        PRES    WAVE
                       AIR SEA DIR/SP/G            HT/PER
                 (UTC) (F)     (DEG/KT/KT) (MB)    (FT/S)
20 E GALVESTON   0400   71 71  140/ 12/ 14 1012.0    1/ 3
35 NE PT MANSFLD 0400   72 71  140/ 14/ 16 1010.7    3/ 4
$$



USA.gov is the U.S. government's official web portal to all federal, state and local government web resources and services.